Time,TemperatureF,DewpointF,PressureIn,WindDirection,WindDirectionDegrees,WindSpeedMPH,WindSpeedGustMPH,Humidity,HourlyPrecipIn,Conditions,Clouds,dailyrainin,SoftwareType,DateUTC
2013-08-29 00:01:00,79.3,56.2,29.94,North,0,0.0,0.0,45,0.00,CLR,FEW,0.00,WeatherDisplay:10.37,2013-08-29 04:01:00,
2013-08-29 00:02:00,79.3,56.2,29.94,North,0,0.0,0.0,45,0.00,CLR,FEW,0.00,WeatherDisplay:10.37,2013-08-29 04:02:00,
2013-08-29 00:05:00,79.3,55.5,29.94,North,0,0.0,0.0,44,0.00,CLR,FEW,0.00,WeatherDisplay:10.37,2013-08-29 04:05:00,
2013-08-29 00:07:00,79.3,55.5,29.94,North,0,0.0,0.0,44,0.00,CLR,FEW,0.00,WeatherDisplay:10.37,2013-08-29 04:07:00,
2013-08-29 00:12:00,79.2,55.4,29.94,North,0,0.0,0.0,44,0.00,CLR,FEW,0.00,WeatherDisplay:10.37,2013-08-29 04:12:00,
2013-08-29 00:17:00,79.0,55.2,29.94,North,0,0.0,0.0,44,0.00,CLR,FEW,0.00,WeatherDisplay:10.37,2013-08-29 04:17:00,
2013-08-29 00:18:00,78.8,55.0,29.94,North,0,0.0,0.0,44,0.00,CLR,FEW,0.00,WeatherDisplay:10.37,2013-08-29 04:18:00,
2013-08-29 00:19:00,78.8,55.7,29.94,North,0,0.0,0.0,45,0.00,CLR,FEW,0.00,WeatherDisplay:10.37,2013-08-29 04:19:00,
2013-08-29 00:24:00,78.8,55.7,29.94,North,0,0.0,0.0,45,0.00,CLR,FEW,0.00,WeatherDisplay:10.37,2013-08-29 04:24:00,
2013-08-29 00:29:00,79.0,55.2,29.94,North,0,0.0,0.0,44,0.00,CLR,FEW,0.00,WeatherDisplay:10.37,2013-08-29 04:29:00,
2013-08-29 00:34:00,78.8,55.0,29.94,North,0,0.0,0.0,44,0.00,CLR,FEW,0.00,WeatherDisplay:10.37,2013-08-29 04:34:00,
2013-08-29 00:39:00,78.4,55.3,29.94,North,0,0.0,0.0,45,0.00,CLR,FEW,0.00,WeatherDisplay:10.37,2013-08-29 04:39:00,
2013-08-29 00:44:00,78.4,55.9,29.94,North,0,0.0,0.0,46,0.00,CLR,FEW,0.00,WeatherDisplay:10.37,2013-08-29 04:44:00,
2013-08-29 00:49:00,78.4,55.3,29.94,North,0,0.0,0.0,45,0.00,CLR,FEW,0.00,WeatherDisplay:10.37,2013-08-29 04:49:00,
2013-08-29 00:54:00,78.3,55.2,29.94,North,0,0.0,0.0,45,0.00,CLR,FEW,0.00,WeatherDisplay:10.37,2013-08-29 04:54:00,
2013-08-29 00:59:00,77.9,55.5,29.91,North,0,0.0,0.0,46,0.00,CLR,FEW,0.00,WeatherDisplay:10.37,2013-08-29 04:59:00,
2013-08-29 01:04:00,77.9,56.0,29.91,North,0,0.0,0.0,47,0.00,CLR,FEW,0.00,WeatherDisplay:10.37,2013-08-29 05:04:00,
2013-08-29 01:09:00,77.9,55.5,29.91,North,0,0.0,0.0,46,0.00,CLR,FEW,0.00,WeatherDisplay:10.37,2013-08-29 05:09:00,
2013-08-29 01:14:00,77.9,55.5,29.91,North,0,0.0,0.0,46,0.00,CLR,FEW,0.00,WeatherDisplay:10.37,2013-08-29 05:14:00,
2013-08-29 01:19:00,77.7,55.3,29.91,North,0,0.0,0.0,46,0.00,CLR,FEW,0.00,WeatherDisplay:10.37,2013-08-29 05:19:00,
2013-08-29 01:24:00,77.5,55.7,29.91,North,0,0.0,0.0,47,0.00,CLR,FEW,0.00,WeatherDisplay:10.37,2013-08-29 05:24:00,
2013-08-29 01:29:00,77.7,55.3,29.91,North,0,0.0,0.0,46,0.00,CLR,FEW,0.00,WeatherDisplay:10.37,2013-08-29 05:29:00,
2013-08-29 01:34:00,77.5,55.1,29.91,North,0,0.0,0.0,46,0.00,CLR,FEW,0.00,WeatherDisplay:10.37,2013-08-29 05:34:00,
2013-08-29 01:39:00,77.4,55.0,29.91,North,0,0.0,0.0,46,0.00,CLR,FEW,0.00,WeatherDisplay:10.37,2013-08-29 05:39:00,
2013-08-29 01:44:00,77.4,55.6,29.91,North,0,0.0,0.0,47,0.00,CLR,FEW,0.00,WeatherDisplay:10.37,2013-08-29 05:44:00,
2013-08-29 01:49:00,77.5,55.7,29.91,North,0,0.0,0.0,47,0.00,CLR,FEW,0.00,WeatherDisplay:10.37,2013-08-29 05:49:00,
2013-08-29 01:54:00,77.4,55.0,29.91,North,0,0.0,0.0,46,0.00,CLR,FEW,0.00,WeatherDisplay:10.37,2013-08-29 05:54:00,
2013-08-29 01:59:00,77.2,55.4,29.91,North,0,0.0,0.0,47,0.00,CLR,FEW,0.00,WeatherDisplay:10.37,2013-08-29 05:59:00,
2013-08-29 02:04:00,77.0,55.8,29.91,North,0,0.0,0.0,48,0.00,CLR,FEW,0.00,WeatherDisplay:10.37,2013-08-29 06:04:00,
2013-08-29 02:09:00,77.2,56.5,29.91,North,0,0.0,0.0,49,0.00,CLR,FEW,0.00,WeatherDisplay:10.37,2013-08-29 06:09:00,
2013-08-29 02:14:00,77.0,55.8,29.91,North,0,0.0,0.0,48,0.00,CLR,FEW,0.00,WeatherDisplay:10.37,2013-08-29 06:14:00,
2013-08-29 02:19:00,77.0,56.4,29.91,North,0,0.0,0.0,49,0.00,CLR,FEW,0.00,WeatherDisplay:10.37,2013-08-29 06:19:00,
2013-08-29 02:24:00,76.8,57.3,29.91,North,0,0.0,0.0,51,0.00,CLR,FEW,0.00,WeatherDisplay:10.37,2013-08-29 06:24:00,
2013-08-29 02:29:00,76.8,57.9,29.91,North,0,0.0,0.0,52,0.00,CLR,FEW,0.00,WeatherDisplay:10.37,2013-08-29 06:29:00,
2013-08-29 02:34:00,76.6,57.2,29.91,North,0,0.0,0.0,51,0.00,CLR,FEW,0.00,WeatherDisplay:10.37,2013-08-29 06:34:00,
2013-08-29 02:39:00,76.5,58.1,29.91,North,0,0.0,0.0,53,0.00,CLR,FEW,0.00,WeatherDisplay:10.37,2013-08-29 06:39:00,
2013-08-29 02:44:00,76.5,58.6,29.91,North,0,0.0,0.0,54,0.00,CLR,FEW,0.00,WeatherDisplay:10.37,2013-08-29 06:44:00,
2013-08-29 02:49:00,76.5,59.1,29.91,North,0,0.0,0.0,55,0.00,CLR,FEW,0.00,WeatherDisplay:10.37,2013-08-29 06:49:00,
2013-08-29 02:54:00,76.5,58.6,29.91,North,0,0.0,0.0,54,0.00,CLR,FEW,0.00,WeatherDisplay:10.37,2013-08-29 06:54:00,
2013-08-29 02:59:00,76.3,58.9,29.91,North,0,0.0,0.0,55,0.00,CLR,FEW,0.00,WeatherDisplay:10.37,2013-08-29 06:59:00,
2013-08-29 03:04:00,76.3,58.9,29.91,North,0,0.0,0.0,55,0.00,CLR,FEW,0.00,WeatherDisplay:10.37,2013-08-29 07:04:00,
2013-08-29 03:09:00,76.3,59.4,29.91,North,0,0.0,0.0,56,0.00,CLR,FEW,0.00,WeatherDisplay:10.37,2013-08-29 07:09:00,
2013-08-29 03:14:00,76.5,59.1,29.91,North,0,0.0,0.0,55,0.00,CLR,FEW,0.00,WeatherDisplay:10.37,2013-08-29 07:14:00,
2013-08-29 03:19:00,76.3,58.9,29.91,North,0,0.0,0.0,55,0.00,CLR,FEW,0.00,WeatherDisplay:10.37,2013-08-29 07:19:00,
2013-08-29 03:24:00,76.1,59.3,29.91,North,0,0.0,0.0,56,0.00,CLR,FEW,0.00,WeatherDisplay:10.37,2013-08-29 07:24:00,
2013-08-29 03:29:00,75.9,60.1,29.91,North,0,0.0,0.0,58,0.00,CLR,FEW,0.00,WeatherDisplay:10.37,2013-08-29 07:29:00,
2013-08-29 03:34:00,76.1,60.2,29.91,North,0,0.0,0.0,58,0.00,CLR,FEW,0.00,WeatherDisplay:10.37,2013-08-29 07:34:00,
2013-08-29 03:39:00,76.1,60.2,29.91,North,0,0.0,0.0,58,0.00,CLR,FEW,0.00,WeatherDisplay:10.37,2013-08-29 07:39:00,
2013-08-29 03:44:00,75.9,60.1,29.91,North,0,0.0,0.0,58,0.00,CLR,FEW,0.00,WeatherDisplay:10.37,2013-08-29 07:44:00,
2013-08-29 03:49:00,75.7,60.4,29.91,North,0,0.0,0.0,59,0.00,CLR,FEW,0.00,WeatherDisplay:10.37,2013-08-29 07:49:00,
2013-08-29 03:54:00,75.7,60.9,29.91,North,0,0.0,0.0,60,0.00,CLR,FEW,0.00,WeatherDisplay:10.37,2013-08-29 07:54:00,
2013-08-29 03:59:00,75.9,61.0,29.91,North,0,0.0,0.0,60,0.00,CLR,FEW,0.00,WeatherDisplay:10.37,2013-08-29 07:59:00,
2013-08-29 04:04:00,75.7,60.9,29.91,North,0,0.0,0.0,60,0.00,CLR,FEW,0.00,WeatherDisplay:10.37,2013-08-29 08:04:00,
2013-08-29 04:09:00,75.6,60.7,29.91,North,0,0.0,0.0,60,0.00,CLR,FEW,0.00,WeatherDisplay:10.37,2013-08-29 08:09:00,
2013-08-29 04:14:00,75.6,61.6,29.91,North,0,0.0,0.0,62,0.00,CLR,FEW,0.00,WeatherDisplay:10.37,2013-08-29 08:14:00,
2013-08-29 04:19:00,75.7,61.8,29.91,North,0,0.0,0.0,62,0.00,CLR,FEW,0.00,WeatherDisplay:10.37,2013-08-29 08:19:00,
2013-08-29 04:24:00,75.7,61.3,29.91,North,0,0.0,0.0,61,0.00,CLR,FEW,0.00,WeatherDisplay:10.37,2013-08-29 08:24:00,
2013-08-29 04:29:00,75.6,61.2,29.91,North,0,0.0,0.0,61,0.00,CLR,FEW,0.00,WeatherDisplay:10.37,2013-08-29 08:29:00,
2013-08-29 04:34:00,75.6,61.2,29.91,North,0,0.0,0.0,61,0.00,CLR,FEW,0.00,WeatherDisplay:10.37,2013-08-29 08:34:00,
2013-08-29 04:39:00,75.6,61.6,29.91,North,0,0.0,0.0,62,0.00,CLR,FEW,0.00,WeatherDisplay:10.37,2013-08-29 08:39:00,
2013-08-29 04:44:00,75.6,61.2,29.91,North,0,0.0,0.0,61,0.00,CLR,FEW,0.00,WeatherDisplay:10.37,2013-08-29 08:44:00,
2013-08-29 04:49:00,75.6,61.2,29.91,North,0,0.0,0.0,61,0.00,CLR,FEW,0.00,WeatherDisplay:10.37,2013-08-29 08:49:00,
2013-08-29 04:54:00,75.4,61.0,29.91,North,0,0.0,0.0,61,0.00,CLR,FEW,0.00,WeatherDisplay:10.37,2013-08-29 08:54:00,
2013-08-29 04:59:00,75.4,61.5,29.91,North,0,0.0,0.0,62,0.00,CLR,FEW,0.00,WeatherDisplay:10.37,2013-08-29 08:59:00,
2013-08-29 05:04:00,75.4,61.5,29.91,North,0,0.0,0.0,62,0.00,CLR,FEW,0.00,WeatherDisplay:10.37,2013-08-29 09:04:00,
2013-08-29 05:09:00,75.4,61.5,29.91,North,0,0.0,0.0,62,0.00,CLR,FEW,0.00,WeatherDisplay:10.37,2013-08-29 09:09:00,
2013-08-29 05:14:00,75.4,61.5,29.91,North,0,0.0,0.0,62,0.00,CLR,FEW,0.00,WeatherDisplay:10.37,2013-08-29 09:14:00,
2013-08-29 05:19:00,75.2,61.3,29.91,North,0,0.0,0.0,62,0.00,CLR,FEW,0.00,WeatherDisplay:10.37,2013-08-29 09:19:00,
2013-08-29 05:24:00,75.2,61.3,29.91,North,0,0.0,0.0,62,0.00,CLR,FEW,0.00,WeatherDisplay:10.37,2013-08-29 09:24:00,
2013-08-29 05:29:00,75.4,61.5,29.91,North,0,0.0,0.0,62,0.00,CLR,FEW,0.00,WeatherDisplay:10.37,2013-08-29 09:29:00,
2013-08-29 05:34:00,75.4,60.5,29.91,North,0,0.0,0.0,60,0.00,CLR,FEW,0.00,WeatherDisplay:10.37,2013-08-29 09:34:00,
2013-08-29 05:39:00,75.2,60.4,29.91,North,0,0.0,0.0,60,0.00,CLR,FEW,0.00,WeatherDisplay:10.37,2013-08-29 09:39:00,
2013-08-29 05:44:00,75.2,60.4,29.88,North,0,0.0,0.0,60,0.00,CLR,FEW,0.00,WeatherDisplay:10.37,2013-08-29 09:44:00,
2013-08-29 05:49:00,75.2,60.4,29.88,North,0,0.0,0.0,60,0.00,CLR,FEW,0.00,WeatherDisplay:10.37,2013-08-29 09:49:00,
2013-08-29 05:54:00,75.4,60.5,29.88,North,0,0.0,0.0,60,0.00,CLR,FEW,0.00,WeatherDisplay:10.37,2013-08-29 09:54:00,
2013-08-29 05:59:00,75.4,59.6,29.91,North,0,0.0,0.0,58,0.00,CLR,FEW,0.00,WeatherDisplay:10.37,2013-08-29 09:59:00,
2013-08-29 06:04:00,75.4,59.6,29.91,North,0,0.0,0.0,58,0.00,CLR,FEW,0.00,WeatherDisplay:10.37,2013-08-29 10:04:00,
2013-08-29 06:09:00,75.4,59.6,29.91,North,0,0.0,0.0,58,0.00,CLR,FEW,0.00,WeatherDisplay:10.37,2013-08-29 10:09:00,
2013-08-29 06:14:00,75.4,59.6,29.91,North,0,0.0,0.0,58,0.00,CLR,FEW,0.00,WeatherDisplay:10.37,2013-08-29 10:14:00,
2013-08-29 06:19:00,75.6,58.8,29.91,North,0,0.0,0.0,56,0.00,CLR,FEW,0.00,WeatherDisplay:10.37,2013-08-29 10:19:00,
2013-08-29 06:24:00,75.6,58.3,29.91,North,0,0.0,0.0,55,0.00,CLR,FEW,0.00,WeatherDisplay:10.37,2013-08-29 10:24:00,
2013-08-29 06:29:00,75.4,58.6,29.91,North,0,0.0,0.0,56,0.00,CLR,FEW,0.00,WeatherDisplay:10.37,2013-08-29 10:29:00,
2013-08-29 06:34:00,75.2,58.9,29.91,North,0,0.0,0.0,57,0.00,CLR,FEW,0.00,WeatherDisplay:10.37,2013-08-29 10:34:00,
2013-08-29 06:39:00,75.2,59.4,29.91,North,0,0.0,0.0,58,0.00,CLR,FEW,0.00,WeatherDisplay:10.37,2013-08-29 10:39:00,
2013-08-29 06:44:00,75.0,59.2,29.91,North,0,0.0,0.0,58,0.00,CLR,FEW,0.00,WeatherDisplay:10.37,2013-08-29 10:44:00,
2013-08-29 06:49:00,75.0,59.7,29.91,North,0,0.0,0.0,59,0.00,CLR,FEW,0.00,WeatherDisplay:10.37,2013-08-29 10:49:00,
2013-08-29 06:54:00,74.8,60.0,29.91,North,0,0.0,0.0,60,0.00,CLR,FEW,0.00,WeatherDisplay:10.37,2013-08-29 10:54:00,
2013-08-29 06:59:00,74.8,60.5,29.91,North,0,0.0,0.0,61,0.00,CLR,FEW,0.00,WeatherDisplay:10.37,2013-08-29 10:59:00,
2013-08-29 07:04:00,75.0,60.7,29.91,North,0,0.0,0.0,61,0.00,CLR,FEW,0.00,WeatherDisplay:10.37,2013-08-29 11:04:00,
2013-08-29 07:09:00,75.0,60.2,29.91,North,0,0.0,0.0,60,0.00,CLR,FEW,0.00,WeatherDisplay:10.37,2013-08-29 11:09:00,
2013-08-29 07:14:00,75.0,60.7,29.91,North,0,0.0,0.0,61,0.00,CLR,FEW,0.00,WeatherDisplay:10.37,2013-08-29 11:14:00,
2013-08-29 07:19:00,74.8,60.9,29.91,North,0,0.0,0.0,62,0.00,CLR,FEW,0.00,WeatherDisplay:10.37,2013-08-29 11:19:00,
2013-08-29 07:24:00,75.0,61.1,29.91,North,0,0.0,0.0,62,0.00,CLR,FEW,0.00,WeatherDisplay:10.37,2013-08-29 11:24:00,
2013-08-29 07:29:00,75.2,60.8,29.91,North,0,0.0,0.0,61,0.00,CLR,FEW,0.00,WeatherDisplay:10.37,2013-08-29 11:29:00,
2013-08-29 07:34:00,75.2,60.4,29.91,North,0,0.0,0.0,60,0.00,CLR,FEW,0.00,WeatherDisplay:10.37,2013-08-29 11:34:00,
2013-08-29 07:39:00,75.0,60.7,29.91,North,0,0.0,0.0,61,0.00,CLR,FEW,0.00,WeatherDisplay:10.37,2013-08-29 11:39:00,
2013-08-29 07:44:00,75.2,60.8,29.91,North,0,0.0,0.0,61,0.00,CLR,FEW,0.00,WeatherDisplay:10.37,2013-08-29 11:44:00,
2013-08-29 07:49:00,75.4,60.5,29.91,North,0,0.0,0.0,60,0.00,CLR,FEW,0.00,WeatherDisplay:10.37,2013-08-29 11:49:00,
2013-08-29 07:54:00,75.7,59.4,29.91,North,0,0.0,0.0,57,0.00,CLR,FEW,0.00,WeatherDisplay:10.37,2013-08-29 11:54:00,
2013-08-29 07:59:00,75.7,59.4,29.91,North,0,0.0,0.0,57,0.00,CLR,FEW,0.00,WeatherDisplay:10.37,2013-08-29 11:59:00,
2013-08-29 08:04:00,75.7,59.4,29.91,North,0,0.0,0.0,57,0.00,CLR,FEW,0.00,WeatherDisplay:10.37,2013-08-29 12:04:00,
2013-08-29 08:09:00,75.9,59.6,29.91,North,0,0.0,0.0,57,0.00,CLR,FEW,0.00,WeatherDisplay:10.37,2013-08-29 12:09:00,
2013-08-29 08:14:00,76.1,59.3,29.91,North,0,0.0,0.0,56,0.00,CLR,FEW,0.00,WeatherDisplay:10.37,2013-08-29 12:14:00,
2013-08-29 08:19:00,76.1,59.3,29.91,North,0,0.0,0.0,56,0.00,CLR,FEW,0.00,WeatherDisplay:10.37,2013-08-29 12:19:00,
2013-08-29 08:24:00,76.1,59.8,29.91,North,0,0.0,0.0,57,0.00,CLR,FEW,0.00,WeatherDisplay:10.37,2013-08-29 12:24:00,
2013-08-29 08:29:00,76.6,60.3,29.91,North,0,0.0,0.0,57,0.00,CLR,FEW,0.00,WeatherDisplay:10.37,2013-08-29 12:29:00,
2013-08-29 08:34:00,77.4,58.9,29.91,North,0,0.0,0.0,53,0.00,CLR,FEW,0.00,WeatherDisplay:10.37,2013-08-29 12:34:00,
2013-08-29 08:39:00,78.1,56.8,29.91,North,0,0.0,0.0,48,0.00,CLR,FEW,0.00,WeatherDisplay:10.37,2013-08-29 12:39:00,
2013-08-29 08:44:00,78.4,56.5,29.91,North,0,0.0,0.0,47,0.00,CLR,FEW,0.00,WeatherDisplay:10.37,2013-08-29 12:44:00,
2013-08-29 08:49:00,78.3,55.8,29.91,North,0,0.0,0.0,46,0.00,CLR,FEW,0.00,WeatherDisplay:10.37,2013-08-29 12:49:00,
2013-08-29 08:54:00,78.3,56.4,29.91,North,0,0.0,0.0,47,0.00,CLR,FEW,0.00,WeatherDisplay:10.37,2013-08-29 12:54:00,
2013-08-29 08:59:00,78.6,56.7,29.91,North,0,0.0,0.0,47,0.00,CLR,FEW,0.00,WeatherDisplay:10.37,2013-08-29 12:59:00,
2013-08-29 09:04:00,78.6,55.5,29.91,North,0,0.0,0.0,45,0.00,CLR,FEW,0.00,WeatherDisplay:10.37,2013-08-29 13:04:00,
2013-08-29 09:09:00,78.6,55.5,29.91,North,0,0.0,0.0,45,0.00,CLR,FEW,0.00,WeatherDisplay:10.37,2013-08-29 13:09:00,
2013-08-29 09:14:00,78.4,55.9,29.91,North,0,0.0,0.0,46,0.00,CLR,FEW,0.00,WeatherDisplay:10.37,2013-08-29 13:14:00,
2013-08-29 09:19:00,78.6,55.5,29.91,North,0,0.0,0.0,45,0.00,CLR,FEW,0.00,WeatherDisplay:10.37,2013-08-29 13:19:00,
2013-08-29 09:24:00,79.0,55.2,29.91,North,0,0.0,0.0,44,0.00,CLR,FEW,0.00,WeatherDisplay:10.37,2013-08-29 13:24:00,
2013-08-29 09:29:00,79.5,55.1,29.91,North,0,0.0,0.0,43,0.00,CLR,FEW,0.00,WeatherDisplay:10.37,2013-08-29 13:29:00,
2013-08-29 09:34:00,80.2,55.1,29.91,North,0,0.0,0.0,42,0.00,CLR,FEW,0.00,WeatherDisplay:10.37,2013-08-29 13:34:00,
2013-08-29 09:39:00,80.6,54.0,29.91,North,0,0.0,0.0,40,0.00,CLR,FEW,0.00,WeatherDisplay:10.37,2013-08-29 13:39:00,
2013-08-29 09:44:00,81.1,54.5,29.91,North,0,0.0,0.0,40,0.00,CLR,FEW,0.00,WeatherDisplay:10.37,2013-08-29 13:44:00,
2013-08-29 09:49:00,81.9,53.0,29.91,North,0,0.0,0.0,37,0.00,CLR,FEW,0.00,WeatherDisplay:10.37,2013-08-29 13:49:00,
2013-08-29 09:54:00,82.6,52.9,29.91,North,0,0.0,0.0,36,0.00,CLR,FEW,0.00,WeatherDisplay:10.37,2013-08-29 13:54:00,
2013-08-29 09:59:00,82.8,52.3,29.91,North,0,0.0,0.0,35,0.00,CLR,FEW,0.00,WeatherDisplay:10.37,2013-08-29 13:59:00,
2013-08-29 10:04:00,83.1,51.8,29.91,North,0,0.0,0.0,34,0.00,CLR,FEW,0.00,WeatherDisplay:10.37,2013-08-29 14:04:00,
2013-08-29 10:09:00,84.0,51.0,29.91,North,0,0.0,0.0,32,0.00,CLR,FEW,0.00,WeatherDisplay:10.37,2013-08-29 14:09:00,
2013-08-29 10:14:00,84.0,51.0,29.91,North,0,0.0,0.0,32,0.00,CLR,FEW,0.00,WeatherDisplay:10.37,2013-08-29 14:14:00,
2013-08-29 10:19:00,84.2,52.0,29.91,North,0,0.0,0.0,33,0.00,CLR,FEW,0.00,WeatherDisplay:10.37,2013-08-29 14:19:00,
2013-08-29 10:24:00,85.1,51.1,29.91,North,0,0.0,0.0,31,0.00,CLR,FEW,0.00,WeatherDisplay:10.37,2013-08-29 14:24:00,
2013-08-29 10:29:00,85.1,51.1,29.91,North,0,0.0,0.0,31,0.00,CLR,FEW,0.00,WeatherDisplay:10.37,2013-08-29 14:29:00,
2013-08-29 10:34:00,84.7,49.9,29.91,North,0,0.0,0.0,30,0.00,CLR,FEW,0.00,WeatherDisplay:10.37,2013-08-29 14:34:00,
2013-08-29 10:39:00,84.6,50.6,29.91,North,0,0.0,0.0,31,0.00,CLR,FEW,0.00,WeatherDisplay:10.37,2013-08-29 14:39:00,
2013-08-29 10:44:00,85.1,51.1,29.91,North,0,0.0,0.0,31,0.00,CLR,FEW,0.00,WeatherDisplay:10.37,2013-08-29 14:44:00,
2013-08-29 10:49:00,86.0,50.0,29.91,North,0,0.0,0.0,29,0.00,CLR,FEW,0.00,WeatherDisplay:10.37,2013-08-29 14:49:00,
2013-08-29 10:54:00,86.2,50.2,29.91,North,0,0.0,0.0,29,0.00,CLR,FEW,0.00,WeatherDisplay:10.37,2013-08-29 14:54:00,
2013-08-29 10:59:00,86.4,50.3,29.91,North,0,0.0,0.0,29,0.00,CLR,FEW,0.00,WeatherDisplay:10.37,2013-08-29 14:59:00,
2013-08-29 11:04:00,86.9,49.9,29.91,North,0,0.0,0.0,28,0.00,CLR,FEW,0.00,WeatherDisplay:10.37,2013-08-29 15:04:00,
2013-08-29 11:09:00,87.3,50.2,29.91,North,0,0.0,0.0,28,0.00,CLR,FEW,0.00,WeatherDisplay:10.37,2013-08-29 15:09:00,
2013-08-29 11:14:00,87.4,50.3,29.91,North,0,0.0,0.0,28,0.00,CLR,FEW,0.00,WeatherDisplay:10.37,2013-08-29 15:14:00,
2013-08-29 11:19:00,87.6,48.5,29.91,North,0,0.0,0.0,26,0.00,CLR,FEW,0.00,WeatherDisplay:10.37,2013-08-29 15:19:00,
2013-08-29 11:24:00,88.0,48.8,29.91,North,0,0.0,0.0,26,0.00,CLR,FEW,0.00,WeatherDisplay:10.37,2013-08-29 15:24:00,
2013-08-29 11:29:00,88.3,51.1,29.91,North,0,0.0,0.0,28,0.00,CLR,FEW,0.00,WeatherDisplay:10.37,2013-08-29 15:29:00,
2013-08-29 11:34:00,88.9,49.6,29.91,North,0,0.0,0.0,26,0.00,CLR,FEW,0.00,WeatherDisplay:10.37,2013-08-29 15:34:00,
2013-08-29 11:39:00,88.7,48.4,29.91,North,0,0.0,0.0,25,0.00,CLR,FEW,0.00,WeatherDisplay:10.37,2013-08-29 15:39:00,
2013-08-29 11:44:00,88.9,48.5,29.88,North,0,0.0,0.0,25,0.00,CLR,FEW,0.00,WeatherDisplay:10.37,2013-08-29 15:44:00,
2013-08-29 11:49:00,89.2,48.8,29.88,North,0,0.0,0.0,25,0.00,CLR,FEW,0.00,WeatherDisplay:10.37,2013-08-29 15:49:00,
2013-08-29 11:54:00,89.1,51.7,29.88,North,0,0.0,0.0,28,0.00,CLR,FEW,0.00,WeatherDisplay:10.37,2013-08-29 15:54:00,
2013-08-29 11:59:00,89.4,49.0,29.88,North,0,0.0,0.0,25,0.00,CLR,FEW,0.00,WeatherDisplay:10.37,2013-08-29 15:59:00,
2013-08-29 12:04:00,90.0,47.2,29.88,North,0,0.0,0.0,23,0.00,CLR,FEW,0.00,WeatherDisplay:10.37,2013-08-29 16:04:00,
2013-08-29 12:09:00,90.3,47.5,29.88,North,0,0.0,0.0,23,0.00,CLR,FEW,0.00,WeatherDisplay:10.37,2013-08-29 16:09:00,
2013-08-29 12:14:00,90.3,48.6,29.88,North,0,0.0,0.0,24,0.00,CLR,FEW,0.00,WeatherDisplay:10.37,2013-08-29 16:14:00,
2013-08-29 12:19:00,90.0,49.4,29.88,North,0,0.0,0.0,25,0.00,CLR,FEW,0.00,WeatherDisplay:10.37,2013-08-29 16:19:00,
2013-08-29 12:24:00,90.0,49.4,29.88,North,0,0.0,0.0,25,0.00,CLR,FEW,0.00,WeatherDisplay:10.37,2013-08-29 16:24:00,
2013-08-29 12:29:00,90.5,49.9,29.88,North,0,0.0,0.0,25,0.00,CLR,FEW,0.00,WeatherDisplay:10.37,2013-08-29 16:29:00,
2013-08-29 12:34:00,91.0,49.2,29.88,North,0,0.0,0.0,24,0.00,CLR,FEW,0.00,WeatherDisplay:10.37,2013-08-29 16:34:00,
2013-08-29 12:39:00,91.4,47.2,29.88,North,0,0.0,0.0,22,0.00,CLR,FEW,0.00,WeatherDisplay:10.37,2013-08-29 16:39:00,
2013-08-29 12:44:00,91.2,48.2,29.88,North,0,0.0,0.0,23,0.00,CLR,FEW,0.00,WeatherDisplay:10.37,2013-08-29 16:44:00,
2013-08-29 12:49:00,91.4,48.4,29.88,North,0,0.0,0.0,23,0.00,CLR,FEW,0.00,WeatherDisplay:10.37,2013-08-29 16:49:00,
2013-08-29 12:54:00,91.8,47.5,29.88,North,0,0.0,0.0,22,0.00,CLR,FEW,0.00,WeatherDisplay:10.37,2013-08-29 16:54:00,
2013-08-29 12:59:00,91.9,46.4,29.88,North,0,0.0,0.0,21,0.00,CLR,FEW,0.00,WeatherDisplay:10.37,2013-08-29 16:59:00,
2013-08-29 13:04:00,92.1,46.6,29.88,North,0,0.0,0.0,21,0.00,CLR,FEW,0.00,WeatherDisplay:10.37,2013-08-29 17:04:00,
2013-08-29 13:09:00,91.9,46.4,29.88,North,0,0.0,0.0,21,0.00,CLR,FEW,0.00,WeatherDisplay:10.37,2013-08-29 17:09:00,
2013-08-29 13:14:00,91.9,46.4,29.88,North,0,0.0,0.0,21,0.00,CLR,FEW,0.00,WeatherDisplay:10.37,2013-08-29 17:14:00,
2013-08-29 13:19:00,92.1,46.6,29.88,North,0,0.0,0.0,21,0.00,CLR,FEW,0.00,WeatherDisplay:10.37,2013-08-29 17:19:00,
2013-08-29 13:24:00,92.7,47.0,29.88,North,0,0.0,0.0,21,0.00,CLR,FEW,0.00,WeatherDisplay:10.37,2013-08-29 17:24:00,
2013-08-29 13:29:00,93.2,46.2,29.88,North,0,0.0,0.0,20,0.00,CLR,FEW,0.00,WeatherDisplay:10.37,2013-08-29 17:29:00,
2013-08-29 13:34:00,93.0,44.7,29.88,North,0,0.0,0.0,19,0.00,CLR,FEW,0.00,WeatherDisplay:10.37,2013-08-29 17:34:00,
2013-08-29 13:39:00,92.8,45.9,29.88,North,0,0.0,0.0,20,0.00,CLR,FEW,0.00,WeatherDisplay:10.37,2013-08-29 17:39:00,
2013-08-29 13:44:00,93.0,46.0,29.88,North,0,0.0,0.0,20,0.00,CLR,FEW,0.00,WeatherDisplay:10.37,2013-08-29 17:44:00,
2013-08-29 13:49:00,93.0,46.0,29.88,North,0,0.0,0.0,20,0.00,CLR,FEW,0.00,WeatherDisplay:10.37,2013-08-29 17:49:00,
2013-08-29 13:54:00,92.8,45.9,29.88,North,0,0.0,0.0,20,0.00,CLR,FEW,0.00,WeatherDisplay:10.37,2013-08-29 17:54:00,
2013-08-29 13:59:00,93.0,44.7,29.88,North,0,0.0,0.0,19,0.00,CLR,FEW,0.00,WeatherDisplay:10.37,2013-08-29 17:59:00,
2013-08-29 14:04:00,93.0,46.0,29.88,North,0,0.0,0.0,20,0.00,CLR,FEW,0.00,WeatherDisplay:10.37,2013-08-29 18:04:00,
2013-08-29 14:09:00,93.0,46.0,29.88,North,0,0.0,0.0,20,0.00,CLR,FEW,0.00,WeatherDisplay:10.37,2013-08-29 18:09:00,
2013-08-29 14:14:00,93.0,44.7,29.85,North,0,0.0,0.0,19,0.00,CLR,FEW,0.00,WeatherDisplay:10.37,2013-08-29 18:14:00,
2013-08-29 14:19:00,93.0,46.0,29.85,North,0,0.0,0.0,20,0.00,CLR,FEW,0.00,WeatherDisplay:10.37,2013-08-29 18:19:00,
2013-08-29 14:24:00,93.0,47.3,29.85,North,0,0.0,0.0,21,0.00,CLR,FEW,0.00,WeatherDisplay:10.37,2013-08-29 18:24:00,
2013-08-29 14:29:00,93.4,46.3,29.85,North,0,0.0,0.0,20,0.00,CLR,FEW,0.00,WeatherDisplay:10.37,2013-08-29 18:29:00,
2013-08-29 14:34:00,92.5,46.9,29.85,North,0,0.0,0.0,21,0.00,CLR,FEW,0.00,WeatherDisplay:10.37,2013-08-29 18:34:00,
2013-08-29 14:39:00,92.3,48.0,29.85,North,0,0.0,0.0,22,0.00,CLR,FEW,0.00,WeatherDisplay:10.37,2013-08-29 18:39:00,
2013-08-29 14:44:00,92.8,47.2,29.85,North,0,0.0,0.0,21,0.00,CLR,FEW,0.00,WeatherDisplay:10.37,2013-08-29 18:44:00,
2013-08-29 14:49:00,93.4,46.3,29.85,North,0,0.0,0.0,20,0.00,CLR,FEW,0.00,WeatherDisplay:10.37,2013-08-29 18:49:00,
2013-08-29 14:54:00,94.1,48.2,29.85,North,0,0.0,0.0,21,0.00,CLR,FEW,0.00,WeatherDisplay:10.37,2013-08-29 18:54:00,
2013-08-29 14:59:00,93.0,54.1,29.85,North,0,0.0,0.0,27,0.00,CLR,FEW,0.00,WeatherDisplay:10.37,2013-08-29 18:59:00,
2013-08-29 15:04:00,92.1,54.3,29.85,North,0,0.0,0.0,28,0.00,CLR,FEW,0.00,WeatherDisplay:10.37,2013-08-29 19:04:00,
2013-08-29 15:09:00,91.0,53.4,29.85,North,0,0.0,0.0,28,0.00,CLR,FEW,0.00,WeatherDisplay:10.37,2013-08-29 19:09:00,
2013-08-29 15:14:00,90.5,54.8,29.85,North,0,0.0,0.0,30,0.00,CLR,FEW,0.00,WeatherDisplay:10.37,2013-08-29 19:14:00,
2013-08-29 15:19:00,90.1,54.5,29.85,North,0,0.0,0.0,30,0.00,CLR,FEW,0.00,WeatherDisplay:10.37,2013-08-29 19:19:00,
2013-08-29 15:24:00,89.8,55.1,29.85,North,0,0.0,0.0,31,0.00,CLR,FEW,0.00,WeatherDisplay:10.37,2013-08-29 19:24:00,
2013-08-29 15:29:00,89.6,55.0,29.85,North,0,0.0,0.0,31,0.00,CLR,FEW,0.00,WeatherDisplay:10.37,2013-08-29 19:29:00,
2013-08-29 15:34:00,89.8,55.1,29.85,North,0,0.0,0.0,31,0.00,CLR,FEW,0.00,WeatherDisplay:10.37,2013-08-29 19:34:00,
2013-08-29 15:39:00,90.1,56.3,29.85,North,0,0.0,0.0,32,0.00,CLR,FEW,0.00,WeatherDisplay:10.37,2013-08-29 19:39:00,
2013-08-29 15:44:00,89.8,55.1,29.85,North,0,0.0,0.0,31,0.00,CLR,FEW,0.00,WeatherDisplay:10.37,2013-08-29 19:44:00,
2013-08-29 15:49:00,89.4,55.7,29.85,North,0,0.0,0.0,32,0.00,CLR,FEW,0.00,WeatherDisplay:10.37,2013-08-29 19:49:00,
2013-08-29 15:54:00,88.7,55.9,29.85,North,0,0.0,0.0,33,0.00,CLR,FEW,0.00,WeatherDisplay:10.37,2013-08-29 19:54:00,
2013-08-29 15:59:00,88.0,56.9,29.85,North,0,0.0,0.0,35,0.00,CLR,FEW,0.00,WeatherDisplay:10.37,2013-08-29 19:59:00,
2013-08-29 16:04:00,87.6,57.4,29.85,North,0,0.0,0.0,36,0.00,CLR,FEW,0.00,WeatherDisplay:10.37,2013-08-29 20:04:00,
2013-08-29 16:09:00,87.3,58.6,29.85,North,0,0.0,0.0,38,0.00,CLR,FEW,0.00,WeatherDisplay:10.37,2013-08-29 20:09:00,
2013-08-29 16:14:00,87.1,59.1,29.85,North,0,0.0,0.0,39,0.00,CLR,FEW,0.00,WeatherDisplay:10.37,2013-08-29 20:14:00,
2013-08-29 16:19:00,87.1,59.1,29.85,North,0,0.0,0.0,39,0.00,CLR,FEW,0.00,WeatherDisplay:10.37,2013-08-29 20:19:00,
2013-08-29 16:24:00,87.3,58.6,29.85,North,0,0.0,0.0,38,0.00,CLR,FEW,0.00,WeatherDisplay:10.37,2013-08-29 20:24:00,
2013-08-29 16:29:00,87.6,58.1,29.85,North,0,0.0,0.0,37,0.00,CLR,FEW,0.00,WeatherDisplay:10.37,2013-08-29 20:29:00,
2013-08-29 16:34:00,87.4,58.7,29.85,North,0,0.0,0.0,38,0.00,CLR,FEW,0.00,WeatherDisplay:10.37,2013-08-29 20:34:00,
2013-08-29 16:39:00,87.1,57.7,29.85,North,0,0.0,0.0,37,0.00,CLR,FEW,0.00,WeatherDisplay:10.37,2013-08-29 20:39:00,
2013-08-29 16:44:00,86.7,58.1,29.85,North,0,0.0,0.0,38,0.00,CLR,FEW,0.00,WeatherDisplay:10.37,2013-08-29 20:44:00,
2013-08-29 16:49:00,86.5,57.9,29.85,North,0,0.0,0.0,38,0.00,CLR,FEW,0.00,WeatherDisplay:10.37,2013-08-29 20:49:00,
2013-08-29 16:54:00,86.4,58.5,29.85,North,0,0.0,0.0,39,0.00,CLR,FEW,0.00,WeatherDisplay:10.37,2013-08-29 20:54:00,
2013-08-29 16:59:00,86.2,58.3,29.85,North,0,0.0,0.0,39,0.00,CLR,FEW,0.00,WeatherDisplay:10.37,2013-08-29 20:59:00,
2013-08-29 17:04:00,86.0,58.9,29.85,North,0,0.0,0.0,40,0.00,CLR,FEW,0.00,WeatherDisplay:10.37,2013-08-29 21:04:00,
2013-08-29 17:09:00,86.2,60.4,29.85,North,0,0.0,0.0,42,0.00,CLR,FEW,0.00,WeatherDisplay:10.37,2013-08-29 21:09:00,
2013-08-29 17:14:00,87.1,60.5,29.85,North,0,0.0,0.0,41,0.00,CLR,FEW,0.00,WeatherDisplay:10.37,2013-08-29 21:14:00,
2013-08-29 17:19:00,87.3,59.3,29.85,North,0,0.0,0.0,39,0.00,CLR,FEW,0.00,WeatherDisplay:10.37,2013-08-29 21:19:00,
2013-08-29 17:24:00,86.7,58.1,29.85,North,0,0.0,0.0,38,0.00,CLR,FEW,0.00,WeatherDisplay:10.37,2013-08-29 21:24:00,
2013-08-29 17:29:00,86.2,59.0,29.85,North,0,0.0,0.0,40,0.00,CLR,FEW,0.00,WeatherDisplay:10.37,2013-08-29 21:29:00,
2013-08-29 17:34:00,85.8,59.4,29.85,North,0,0.0,0.0,41,0.00,CLR,FEW,0.00,WeatherDisplay:10.37,2013-08-29 21:34:00,
2013-08-29 17:39:00,85.3,58.9,29.85,North,0,0.0,0.0,41,0.00,CLR,FEW,0.00,WeatherDisplay:10.37,2013-08-29 21:39:00,
2013-08-29 17:44:00,85.1,60.1,29.85,North,0,0.0,0.0,43,0.00,CLR,FEW,0.00,WeatherDisplay:10.37,2013-08-29 21:44:00,
2013-08-29 17:49:00,84.9,60.6,29.85,North,0,0.0,0.0,44,0.00,CLR,FEW,0.00,WeatherDisplay:10.37,2013-08-29 21:49:00,
2013-08-29 17:54:00,85.1,61.4,29.85,North,0,0.0,0.0,45,0.00,CLR,FEW,0.00,WeatherDisplay:10.37,2013-08-29 21:54:00,
2013-08-29 17:59:00,85.3,60.9,29.85,North,0,0.0,0.0,44,0.00,CLR,FEW,0.00,WeatherDisplay:10.37,2013-08-29 21:59:00,
2013-08-29 18:04:00,85.1,60.7,29.85,North,0,0.0,0.0,44,0.00,CLR,FEW,0.00,WeatherDisplay:10.37,2013-08-29 22:04:00,
2013-08-29 18:09:00,85.3,61.5,29.85,North,0,0.0,0.0,45,0.00,CLR,FEW,0.00,WeatherDisplay:10.37,2013-08-29 22:09:00,
2013-08-29 18:14:00,85.3,60.9,29.85,North,0,0.0,0.0,44,0.00,CLR,FEW,0.00,WeatherDisplay:10.37,2013-08-29 22:14:00,
2013-08-29 18:19:00,85.1,60.7,29.85,North,0,0.0,0.0,44,0.00,CLR,FEW,0.00,WeatherDisplay:10.37,2013-08-29 22:19:00,
2013-08-29 18:25:00,84.9,60.6,29.85,North,0,0.0,0.0,44,0.00,CLR,FEW,0.00,WeatherDisplay:10.37,2013-08-29 22:25:00,
2013-08-29 18:30:00,84.9,61.2,29.85,North,0,0.0,0.0,45,0.00,CLR,FEW,0.00,WeatherDisplay:10.37,2013-08-29 22:30:00,
2013-08-29 18:35:00,84.9,61.8,29.85,North,0,0.0,0.0,46,0.00,CLR,FEW,0.00,WeatherDisplay:10.37,2013-08-29 22:35:00,
2013-08-29 18:40:00,84.9,63.0,29.85,North,0,0.0,0.0,48,0.00,CLR,FEW,0.00,WeatherDisplay:10.37,2013-08-29 22:40:00,
2013-08-29 18:45:00,84.9,61.2,29.85,North,0,0.0,0.0,45,0.00,CLR,FEW,0.00,WeatherDisplay:10.37,2013-08-29 22:45:00,
2013-08-29 18:50:00,84.7,57.7,29.85,North,0,0.0,0.0,40,0.00,CLR,FEW,0.00,WeatherDisplay:10.37,2013-08-29 22:50:00,
2013-08-29 18:55:00,84.7,57.7,29.85,North,0,0.0,0.0,40,0.00,CLR,FEW,0.00,WeatherDisplay:10.37,2013-08-29 22:55:00,
2013-08-29 19:01:00,84.6,56.9,29.85,North,0,0.0,0.0,39,0.00,CLR,FEW,0.00,WeatherDisplay:10.37,2013-08-29 23:01:00,
2013-08-29 19:06:00,84.2,56.6,29.85,North,0,0.0,0.0,39,0.00,CLR,FEW,0.00,WeatherDisplay:10.37,2013-08-29 23:06:00,
2013-08-29 19:11:00,84.2,57.3,29.85,North,0,0.0,0.0,40,0.00,CLR,FEW,0.00,WeatherDisplay:10.37,2013-08-29 23:11:00,
2013-08-29 19:16:00,84.4,58.8,29.85,North,0,0.0,0.0,42,0.00,CLR,FEW,0.00,WeatherDisplay:10.37,2013-08-29 23:16:00,
2013-08-29 19:21:00,84.0,59.1,29.85,North,0,0.0,0.0,43,0.00,CLR,FEW,0.00,WeatherDisplay:10.37,2013-08-29 23:21:00,
2013-08-29 19:26:00,83.7,58.8,29.85,North,0,0.0,0.0,43,0.00,CLR,FEW,0.00,WeatherDisplay:10.37,2013-08-29 23:26:00,
2013-08-29 19:31:00,83.3,59.1,29.85,North,0,0.0,0.0,44,0.00,CLR,FEW,0.00,WeatherDisplay:10.37,2013-08-29 23:31:00,
2013-08-29 19:36:00,83.1,59.6,29.85,North,0,0.0,0.0,45,0.00,CLR,FEW,0.00,WeatherDisplay:10.37,2013-08-29 23:36:00,
2013-08-29 19:41:00,83.1,60.2,29.85,North,0,0.0,0.0,46,0.00,CLR,FEW,0.00,WeatherDisplay:10.37,2013-08-29 23:41:00,
2013-08-29 19:46:00,82.9,60.6,29.88,North,0,0.0,0.0,47,0.00,CLR,FEW,0.00,WeatherDisplay:10.37,2013-08-29 23:46:00,
2013-08-29 19:51:00,82.8,61.1,29.88,North,0,0.0,0.0,48,0.00,CLR,FEW,0.00,WeatherDisplay:10.37,2013-08-29 23:51:00,
2013-08-29 19:56:00,82.8,61.1,29.88,North,0,0.0,0.0,48,0.00,CLR,FEW,0.00,WeatherDisplay:10.37,2013-08-29 23:56:00,
2013-08-29 20:01:00,82.8,63.3,29.88,North,0,0.0,0.0,52,0.00,CLR,FEW,0.00,WeatherDisplay:10.37,2013-08-30 00:01:00,
2013-08-29 20:06:00,82.6,64.3,29.88,North,0,0.0,0.0,54,0.00,CLR,FEW,0.00,WeatherDisplay:10.37,2013-08-30 00:06:00,
2013-08-29 20:11:00,82.4,65.1,29.88,North,0,0.0,0.0,56,0.00,CLR,FEW,0.00,WeatherDisplay:10.37,2013-08-30 00:11:00,
2013-08-29 20:16:00,82.2,66.0,29.88,North,0,0.0,0.0,58,0.00,CLR,FEW,0.00,WeatherDisplay:10.37,2013-08-30 00:16:00,
2013-08-29 20:21:00,82.0,66.8,29.88,North,0,0.0,0.0,60,0.00,CLR,FEW,0.00,WeatherDisplay:10.37,2013-08-30 00:21:00,
2013-08-29 20:26:00,82.0,67.3,29.88,North,0,0.0,0.0,61,0.00,CLR,FEW,0.00,WeatherDisplay:10.37,2013-08-30 00:26:00,
2013-08-29 20:31:00,82.0,67.7,29.88,North,0,0.0,0.0,62,0.00,CLR,FEW,0.00,WeatherDisplay:10.37,2013-08-30 00:31:00,
2013-08-29 20:36:00,81.9,68.0,29.88,North,0,0.0,0.0,63,0.00,CLR,FEW,0.00,WeatherDisplay:10.37,2013-08-30 00:36:00,
2013-08-29 20:41:00,81.9,68.0,29.88,North,0,0.0,0.0,63,0.00,CLR,FEW,0.00,WeatherDisplay:10.37,2013-08-30 00:41:00,
2013-08-29 20:46:00,81.9,67.6,29.88,North,0,0.0,0.0,62,0.00,CLR,FEW,0.00,WeatherDisplay:10.37,2013-08-30 00:46:00,
2013-08-29 20:51:00,81.7,67.4,29.88,North,0,0.0,0.0,62,0.00,CLR,FEW,0.00,WeatherDisplay:10.37,2013-08-30 00:51:00,
2013-08-29 20:56:00,81.7,66.9,29.88,North,0,0.0,0.0,61,0.00,CLR,FEW,0.00,WeatherDisplay:10.37,2013-08-30 00:56:00,
2013-08-29 21:01:00,81.7,66.4,29.88,North,0,0.0,0.0,60,0.00,CLR,FEW,0.00,WeatherDisplay:10.37,2013-08-30 01:01:00,
2013-08-29 21:06:00,81.7,66.4,29.88,North,0,0.0,0.0,60,0.00,CLR,FEW,0.00,WeatherDisplay:10.37,2013-08-30 01:06:00,
2013-08-29 21:11:00,81.7,66.4,29.88,North,0,0.0,0.0,60,0.00,CLR,FEW,0.00,WeatherDisplay:10.37,2013-08-30 01:11:00,
2013-08-29 21:17:00,81.5,66.3,29.91,North,0,0.0,0.0,60,0.00,CLR,FEW,0.00,WeatherDisplay:10.37,2013-08-30 01:17:00,
2013-08-29 21:22:00,81.3,66.1,29.91,North,0,0.0,0.0,60,0.00,CLR,FEW,0.00,WeatherDisplay:10.37,2013-08-30 01:22:00,
2013-08-29 21:27:00,81.3,65.6,29.91,North,0,0.0,0.0,59,0.00,CLR,FEW,0.00,WeatherDisplay:10.37,2013-08-30 01:27:00,
2013-08-29 21:32:00,81.3,65.1,29.91,North,0,0.0,0.0,58,0.00,CLR,FEW,0.00,WeatherDisplay:10.37,2013-08-30 01:32:00,
2013-08-29 21:37:00,81.1,65.0,29.91,North,0,0.0,0.0,58,0.00,CLR,FEW,0.00,WeatherDisplay:10.37,2013-08-30 01:37:00,
2013-08-29 21:42:00,81.1,65.0,29.91,North,0,0.0,0.0,58,0.00,CLR,FEW,0.00,WeatherDisplay:10.37,2013-08-30 01:42:00,
2013-08-29 21:47:00,81.0,64.8,29.91,North,0,0.0,0.0,58,0.00,CLR,FEW,0.00,WeatherDisplay:10.37,2013-08-30 01:47:00,
2013-08-29 21:52:00,81.0,64.8,29.91,North,0,0.0,0.0,58,0.00,CLR,FEW,0.00,WeatherDisplay:10.37,2013-08-30 01:52:00,
2013-08-29 21:57:00,80.8,64.6,29.91,North,0,0.0,0.0,58,0.00,CLR,FEW,0.00,WeatherDisplay:10.37,2013-08-30 01:57:00,
2013-08-29 22:02:00,80.8,64.6,29.91,North,0,0.0,0.0,58,0.00,CLR,FEW,0.00,WeatherDisplay:10.37,2013-08-30 02:02:00,
2013-08-29 22:07:00,80.8,64.1,29.91,North,0,0.0,0.0,57,0.00,CLR,FEW,0.00,WeatherDisplay:10.37,2013-08-30 02:07:00,
2013-08-29 22:12:00,80.6,64.0,29.91,North,0,0.0,0.0,57,0.00,CLR,FEW,0.00,WeatherDisplay:10.37,2013-08-30 02:12:00,
2013-08-29 22:17:00,80.6,63.5,29.91,North,0,0.0,0.0,56,0.00,CLR,FEW,0.00,WeatherDisplay:10.37,2013-08-30 02:17:00,
2013-08-29 22:22:00,80.6,63.5,29.91,North,0,0.0,0.0,56,0.00,CLR,FEW,0.00,WeatherDisplay:10.37,2013-08-30 02:22:00,
2013-08-29 22:27:00,80.6,63.5,29.91,North,0,0.0,0.0,56,0.00,CLR,FEW,0.00,WeatherDisplay:10.37,2013-08-30 02:27:00,
2013-08-29 22:32:00,80.6,63.5,29.91,North,0,0.0,0.0,56,0.00,CLR,FEW,0.00,WeatherDisplay:10.37,2013-08-30 02:32:00,
2013-08-29 22:37:00,80.4,63.8,29.91,North,0,0.0,0.0,57,0.00,CLR,FEW,0.00,WeatherDisplay:10.37,2013-08-30 02:37:00,
2013-08-29 22:42:00,80.4,63.8,29.91,North,0,0.0,0.0,57,0.00,CLR,FEW,0.00,WeatherDisplay:10.37,2013-08-30 02:42:00,
2013-08-29 22:47:00,80.4,63.8,29.91,North,0,0.0,0.0,57,0.00,CLR,FEW,0.00,WeatherDisplay:10.37,2013-08-30 02:47:00,
2013-08-29 22:52:00,80.4,63.8,29.91,North,0,0.0,0.0,57,0.00,CLR,FEW,0.00,WeatherDisplay:10.37,2013-08-30 02:52:00,
2013-08-29 22:57:00,80.2,63.6,29.91,North,0,0.0,0.0,57,0.00,CLR,FEW,0.00,WeatherDisplay:10.37,2013-08-30 02:57:00,
2013-08-29 23:02:00,80.2,64.1,29.91,North,0,0.0,0.0,58,0.00,CLR,FEW,0.00,WeatherDisplay:10.37,2013-08-30 03:02:00,
2013-08-29 23:07:00,80.2,63.6,29.91,North,0,0.0,0.0,57,0.00,CLR,FEW,0.00,WeatherDisplay:10.37,2013-08-30 03:07:00,
2013-08-29 23:12:00,80.2,63.1,29.91,North,0,0.0,0.0,56,0.00,CLR,FEW,0.00,WeatherDisplay:10.37,2013-08-30 03:12:00,
2013-08-29 23:17:00,80.4,62.8,29.91,North,0,0.0,0.0,55,0.00,CLR,FEW,0.00,WeatherDisplay:10.37,2013-08-30 03:17:00,
2013-08-29 23:22:00,80.4,62.2,29.91,North,0,0.0,0.0,54,0.00,CLR,FEW,0.00,WeatherDisplay:10.37,2013-08-30 03:22:00,
2013-08-29 23:27:00,80.4,62.2,29.91,North,0,0.0,0.0,54,0.00,CLR,FEW,0.00,WeatherDisplay:10.37,2013-08-30 03:27:00,
2013-08-29 23:32:00,80.4,62.2,29.91,North,0,0.0,0.0,54,0.00,CLR,FEW,0.00,WeatherDisplay:10.37,2013-08-30 03:32:00,
2013-08-29 23:37:00,80.4,63.3,29.91,North,0,0.0,0.0,56,0.00,CLR,FEW,0.00,WeatherDisplay:10.37,2013-08-30 03:37:00,
2013-08-29 23:42:00,80.2,63.6,29.91,North,0,0.0,0.0,57,0.00,CLR,FEW,0.00,WeatherDisplay:10.37,2013-08-30 03:42:00,
2013-08-29 23:47:00,80.1,66.3,29.91,North,0,0.0,0.0,63,0.00,CLR,FEW,0.00,WeatherDisplay:10.37,2013-08-30 03:47:00,
2013-08-29 23:52:00,79.9,67.1,29.91,North,0,0.0,0.0,65,0.00,CLR,FEW,0.00,WeatherDisplay:10.37,2013-08-30 03:52:00,
2013-08-29 23:57:00,79.9,67.5,29.91,North,0,0.0,0.0,66,0.00,CLR,FEW,0.00,WeatherDisplay:10.37,2013-08-30 03:57:00,